Location: Pasarilla del Rebollar
(40.6790°N, 5.0062°W)
Time: 12:11:22
(UTC+00:00)

IDEFIX/ARIANE 42P - Pass Details

Date: 22 April 2026
Orbit: 780 x 797 km, 98.6° (Epoch: 16 May)

Event Time Altitude Azimuth Distance (km) Brightness Sun altitude
Rises 01:51:20 0° 15° (NNE) 3,279 6.8 -33.0°
Reaches altitude 10° 01:53:40 10° 18° (NNE) 2,348 5.8 -32.8°
Enters shadow 01:57:24 47° 34° (NE) 1,029 3.4 -32.4°
